This demonstration page uses our WeatherBlox Daily Observations layout. Learn more.

Left ArrowRight Arrow

40.92945, -100.16068

Hourly Observations for September 29, 2016

Temp ( °F °C ) Dew Point ( °F °C ) Humidity (%) Winds ( mph kmh ) Pressure ( in mb ) Visibility ( mi km ) Precip ( " mm )
12:15 am 00:15 Clear 47 8.6 41 4.9 78 78 E 3 6 30.39 1029 10 16 N/A
12:35 am 00:35 Clear 47 8.5 41 5.1 79 79 ENE 5 7 30.39 1029 10 16 N/A
12:55 am 00:55 Clear 47 8.5 41 5 79 79 ENE 5 7 30.39 1029 10 16 N/A
1:15 am 01:15 Clear with Mist and Fog 45 7 40 4.7 85 85 ENE 5 7 30.39 1029 5 8 N/A
1:35 am 01:35 Clear 44 6.5 40 4.3 86 86 ENE 3 6 30.42 1030 10 16 N/A
1:55 am 01:55 Clear 44 6.7 40 4.5 86 86 N N/A 30.42 1030 10 16 N/A
2:15 am 02:15 Clear 43 5.9 39 3.7 86 86 N N/A 30.45 1031 10 16 N/A
2:35 am 02:35 Clear 41 4.9 37 2.7 86 86 N N/A 30.45 1031 10 16 N/A
2:55 am 02:55 Clear 41 5 38 3.1 88 88 N N/A 30.45 1031 10 16 N/A
3:15 am 03:15 Clear 41 5.2 39 3.7 90 90 N N/A 30.45 1031 10 16 N/A
3:35 am 03:35 Clear 40 4.7 37 3 89 89 N N/A 30.45 1031 10 16 N/A
3:55 am 03:55 Clear 40 4.5 37 3 90 90 NNE 3 6 30.45 1031 10 16 N/A
4:15 am 04:15 Clear 40 4.2 37 2.8 91 91 W 5 7 30.45 1031 10 16 N/A
4:35 am 04:35 Clear 39 3.9 36 2.4 90 90 WNW 3 6 30.48 1032 10 16 N/A
4:55 am 04:55 Clear 39 4 37 2.7 91 91 NW 3 6 30.48 1032 10 16 N/A
5:15 am 05:15 Clear 39 3.8 37 2.5 91 91 N N/A 30.48 1032 10 16 N/A
5:35 am 05:35 Clear 38 3.5 36 2.3 92 92 NNE 5 7 30.48 1032 10 16 N/A
5:55 am 05:55 Clear 38 3.4 36 2.3 93 93 N N/A 30.48 1032 10 16 N/A
6:15 am 06:15 Clear 37 2.7 35 1.6 93 93 N N/A 30.48 1032 10 16 N/A
6:35 am 06:35 Clear 37 2.5 34 1.2 91 91 W 3 6 30.48 1032 10 16 N/A
6:55 am 06:55 Clear 36 2.4 34 1.3 93 93 N N/A 30.48 1032 10 16 N/A
7:15 am 07:15 Clear 37 2.5 35 1.4 93 93 N N/A 30.50 1033 10 16 N/A
7:35 am 07:35 Sunny 37 2.5 35 1.5 93 93 N N/A 30.50 1033 10 16 N/A
7:55 am 07:55 Sunny 36 2.4 35 1.4 93 93 W 3 6 30.50 1033 7 11 N/A
8:15 am 08:15 Sunny with Mist and Fog 38 3.4 36 2.4 93 93 WNW 3 6 30.50 1033 5 8 N/A
8:35 am 08:35 Sunny 40 4.6 38 3.5 93 93 N N/A 30.48 1032 10 16 N/A
8:55 am 08:55 Sunny 43 6.2 41 4.8 91 91 N N/A 30.48 1032 7 11 N/A
9:15 am 09:15 Sunny 46 8 43 5.9 87 87 N N/A 30.48 1032 10 16 N/A
9:35 am 09:35 Sunny 50 10 44 6.9 81 81 SE 3 6 30.48 1032 10 16 N/A
9:55 am 09:55 Sunny 53 11.6 45 7.1 74 74 SSE 3 6 30.45 1031 10 16 N/A
10:15 am 10:15 Sunny 55 12.7 45 7.3 70 70 SE 5 7 30.42 1030 10 16 N/A
10:35 am 10:35 Sunny 57 14.1 46 7.6 65 65 SE 6 9 30.42 1030 10 16 N/A
10:55 am 10:55 Sunny 59 15 45 7.3 60 60 SSE 5 7 30.39 1029 10 16 N/A
11:15 am 11:15 Sunny 60 15.4 44 6.9 57 57 SE 5 7 30.39 1029 10 16 N/A
11:35 am 11:35 Sunny 61 16.3 45 7.1 55 55 S 3 6 30.39 1029 10 16 N/A
11:55 am 11:55 Sunny 63 17 45 7.3 53 53 ESE 7 11 30.39 1029 10 16 N/A
12:15 pm 12:15 Sunny 63 17.3 44 6.6 50 50 E 7 11 30.36 1028 10 16 N/A
12:35 pm 12:35 Sunny 64 17.9 44 6.8 48 48 SE 6 9 30.33 1027 10 16 N/A
12:55 pm 12:55 Sunny 64 18 44 6.7 48 48 ENE 3 6 30.33 1027 10 16 N/A
1:15 pm 13:15 Sunny 65 18.3 44 6.5 46 46 E 3 6 30.33 1027 10 16 N/A
1:35 pm 13:35 Sunny 67 19.3 44 6.5 43 43 ESE 7 11 30.33 1027 10 16 N/A
1:55 pm 13:55 Sunny 68 19.9 43 6.2 41 41 ESE 9 15 30.33 1027 10 16 N/A
2:15 pm 14:15 Sunny 67 19.7 42 5.5 40 40 SE 8 13 30.33 1027 10 16 N/A
2:35 pm 14:35 Sunny 69 20.4 42 5.5 38 38 ESE 7 11 30.27 1025 10 16 N/A
2:55 pm 14:55 Sunny 69 20.5 41 5.1 37 37 SE 6 9 30.27 1025 10 16 N/A
3:15 pm 15:15 Sunny 70 20.9 40 4.7 35 35 SE 9 15 30.27 1025 10 16 N/A
3:35 pm 15:35 Sunny 70 21.1 40 4.2 33 33 SSE 8 13 30.27 1025 10 16 N/A
3:55 pm 15:55 Sunny 70 21 38 3.4 32 32 SE 10 17 30.24 1024 10 16 N/A
4:15 pm 16:15 Sunny 71 21.5 38 3.4 31 31 SE 9 15 30.24 1024 10 16 N/A
4:35 pm 16:35 Sunny 71 21.6 39 4 32 32 E 6 9 30.24 1024 10 16 N/A
4:55 pm 16:55 Sunny 71 21.6 38 3.5 31 31 SE 9 15 30.24 1024 10 16 N/A
5:15 pm 17:15 Sunny 71 21.5 38 3.4 31 31 SSE 10 17 30.24 1024 10 16 N/A
5:35 pm 17:35 Sunny 70 21.3 40 4.2 33 33 S 7 11 30.24 1024 10 16 N/A
5:55 pm 17:55 Sunny 70 21 39 4 33 33 SE 10 17 30.24 1024 10 16 N/A
6:15 pm 18:15 Sunny 69 20.5 39 3.9 34 34 SSE 7 11 30.24 1024 10 16 N/A
6:35 pm 18:35 Sunny 68 20 40 4.2 35 35 SE 9 15 30.24 1024 10 16 N/A
6:55 pm 18:55 Sunny 66 19.1 40 4.6 39 39 SE 8 13 30.27 1025 10 16 N/A
7:15 pm 19:15 Sunny 64 17.7 41 5.1 44 44 SE 7 11 30.27 1025 10 16 N/A
7:35 pm 19:35 Clear 61 16.3 42 5.5 49 49 SE 7 11 30.24 1024 10 16 N/A
7:55 pm 19:55 Clear 60 15.6 42 5.8 52 52 SE 6 9 30.27 1025 10 16 N/A
8:15 pm 20:15 Clear 59 14.9 43 6 55 55 SE 7 11 30.27 1025 10 16 N/A
8:35 pm 20:35 Clear 57 14 43 6 59 59 SE 5 7 30.30 1026 10 16 N/A
8:55 pm 20:55 Clear 56 13.2 43 6 62 62 SE 6 9 30.30 1026 10 16 N/A
9:15 pm 21:15 Clear 55 12.8 43 6 64 64 SE 6 9 30.33 1027 10 16 N/A
9:35 pm 21:35 Clear 55 12.5 43 6 65 65 ESE 5 7 30.33 1027 10 16 N/A
9:55 pm 21:55 Clear 51 10.6 42 5.8 72 72 SE 5 7 30.33 1027 10 16 N/A
10:15 pm 22:15 Clear 51 10.7 43 6 73 73 SE 6 9 30.33 1027 10 16 N/A
10:35 pm 22:35 Clear 52 11.3 43 6.1 71 71 SE 5 7 30.33 1027 10 16 N/A
10:55 pm 22:55 Clear 51 10.6 44 6.4 75 75 SE 6 9 30.33 1027 10 16 N/A
11:15 pm 23:15 Clear 51 10.6 43 6.2 74 74 SE 5 7 30.33 1027 10 16 N/A
11:35 pm 23:35 Clear 50 9.8 43 6 77 77 ESE 6 9 30.33 1027 10 16 N/A
11:55 pm 23:55 Clear 50 10 43 6.2 77 77 ESE 6 9 30.33 1027 10 16 N/A

Powered by AerisWeather